This demonstration page uses our WeatherBlox Daily Observations layout. Learn more.

Left ArrowRight Arrow

Hourly Observations for July 14, 2015

Temp ( °F °C ) Dew Point ( °F °C ) Humidity (%) Winds ( mph kmh ) Pressure ( in mb ) Visibility ( mi km ) Precip ( " mm )
12:53 am 00:53 Clear 74 23.3 48 8.9 40 40 Calm 29.82 1010 10 16 0.00 0.00
1:53 am 01:53 Clear 76 24.4 46 7.8 35 35 N 3 6 29.83 1010 10 16 0.00 0.00
2:53 am 02:53 Clear 75 23.9 46 7.8 36 36 N 6 9 29.82 1010 10 16 0.00 0.00
3:53 am 03:53 Clear 71 21.7 48 8.9 44 44 NNW 5 7 29.83 1010 10 16 0.00 0.00
4:53 am 04:53 Clear 73 22.8 49 9.4 43 43 N 5 7 29.82 1010 10 16 0.00 0.00
5:53 am 05:53 Sunny 70 21.1 51 10.6 51 51 N 5 7 29.83 1010 10 16 0.00 0.00
6:53 am 06:53 Sunny 71 21.7 51 10.6 49 49 N 5 7 29.84 1011 10 16 0.00 0.00
7:53 am 07:53 Sunny 76 24.4 51 10.6 42 42 NNE 3 6 29.85 1011 10 16 0.00 0.00
8:53 am 08:53 Sunny 80 26.7 53 11.7 39 39 VRB 3 6 29.84 1011 10 16 0.00 0.00
9:53 am 09:53 Sunny 84 28.9 53 11.7 34 34 NW 5 7 29.82 1010 10 16 0.00 0.00
10:53 am 10:53 Sunny 88 31.1 53 11.7 30 30 VRB 3 6 29.81 1009 10 16 0.00 0.00
11:53 am 11:53 Sunny 90 32.2 52 11.1 27 27 WNW 5 7 29.79 1009 10 16 0.00 0.00
12:53 pm 12:53 Sunny 93 33.9 51 10.6 24 24 VRB 7 11 29.78 1008 10 16 0.00 0.00
1:53 pm 13:53 Sunny 93 33.9 50 10 23 23 Calm 29.76 1008 10 16 0.00 0.00
2:53 pm 14:53 Sunny 95 35 47 8.3 19 19 VRB 5 7 29.74 1007 10 16 0.00 0.00
3:53 pm 15:53 Sunny 97 36.1 47 8.3 18 18 SSE 6 9 29.72 1007 10 16 0.00 0.00
4:53 pm 16:53 Sunny 98 36.7 46 7.8 17 17 SSE 15 24 29.70 1006 10 16 0.00 0.00
5:53 pm 17:53 Sunny 96 35.6 47 8.3 19 19 S 10 17 29.70 1006 10 16 0.00 0.00
6:53 pm 18:53 Sunny 96 35.6 47 8.3 19 19 SSE 14 22 29.70 1006 10 16 0.00 0.00
7:53 pm 19:53 Sunny 92 33.3 49 9.4 23 23 SSE 12 19 29.71 1006 10 16 0.00 0.00
8:53 pm 20:53 Clear 86 30 46 7.8 25 25 SSE 6 9 29.73 1007 10 16 0.00 0.00
9:53 pm 21:53 Clear 84 28.9 46 7.8 27 27 Calm 29.75 1008 10 16 0.00 0.00
10:53 pm 22:53 Clear 80 26.7 47 8.3 31 31 Calm 29.78 1008 10 16 0.00 0.00
11:53 pm 23:53 Clear 76 24.4 48 8.9 37 37 Calm 29.79 1009 10 16 0.00 0.00

Powered by AerisWeather